Location: ????????
(37.6846°N, 24.0673°E)
Time: 14:10:50
(UTC+00:00)

Cosmos 2208 Rocket - Pass Details

Date: 14 July 2020
Orbit: 754 x 806 km, 74.0° (Epoch: 03 August)

Event Time Altitude Azimuth Distance (km) Brightness Sun altitude
Rises 02:06:25 0° 344° (NNW) 3,307 7.6 -11.8°
Reaches altitude 10° 02:08:51 10° 346° (NNW) 2,367 6.9 -11.5°
Maximum altitude 02:14:14 71° 71° (ENE) 829 4.4 -10.6°
Drops below altitude 10° 02:19:30 10° 155° (SSE) 2,317 6.4 -9.8°
Sets 02:21:51 0° 158° (SSE) 3,232 7.1 -9.4°
